Location: Newark
(7.0858°N, 171.3717°E)
Time: 23:18:20
(UTC+00:00)

Altair - All Passes

Search period start: 25 November 2020 00:00
Search period end: 05 December 2020 00:00
Orbit: 1502 x 1682 km, 47.2° (Epoch: 25 November)

Date Brightness Start Highest point End Pass type
(mag) Time Alt. Az. Time Alt. Az. Time Alt. Az.
25 Nov - 05:48:25 10° S 05:56:18 27° SE 06:03:54 10° ENE daylight
25 Nov - 07:51:18 10° SW 08:00:50 63° NW 08:10:02 10° NNE visible
25 Nov - 10:03:34 10° WNW 10:06:24 12° NW 10:09:15 10° NNW visible
25 Nov - 16:29:36 10° N 16:36:23 22° NE 16:43:17 10° E visible
25 Nov - 18:31:52 10° NW 18:41:17 80° SW 18:51:08 10° SE daylight
25 Nov - 20:41:27 10° WSW 20:46:05 14° SW 20:50:49 10° SSW daylight
26 Nov - 05:23:40 10° S 05:31:06 24° SE 05:38:17 10° E daylight
26 Nov - 07:26:00 10° SW 07:35:40 70° NW 07:44:58 10° NNE visible
26 Nov - 09:36:54 10° WNW 09:41:04 13° NW 09:45:12 10° NNW visible
26 Nov - 16:04:54 10° N 16:11:07 19° NE 16:17:25 10° E visible
26 Nov - 18:06:43 10° NW 18:16:08 88° SW 18:25:57 10° SE visible
26 Nov - 20:15:19 10° W 20:20:51 17° SW 20:26:31 10° SSW daylight
27 Nov - 04:58:59 10° S 05:05:53 21° SE 05:12:34 10° E daylight
27 Nov - 07:00:44 10° SW 07:10:30 78° NW 07:19:53 10° NE visible
27 Nov - 09:10:37 10° WNW 09:15:45 16° NW 09:20:49 10° N visible
27 Nov - 15:40:16 10° N 15:45:49 17° NE 15:51:27 10° E visible
27 Nov - 17:41:35 10° NW 17:50:58 84° NE 18:00:45 10° SE visible
27 Nov - 19:49:22 10° W 19:55:37 19° SW 20:02:02 10° S daylight
28 Nov - 04:34:24 10° S 04:40:39 18° SE 04:46:44 10° E daylight
28 Nov - 06:35:29 10° SW 06:45:19 86° NW 06:54:46 10° NE visible
28 Nov - 08:44:33 10° W 08:50:26 18° NW 08:56:16 10° N visible
28 Nov - 15:15:46 10° N 15:20:31 15° NE 15:25:18 10° ENE visible
28 Nov - 17:16:28 10° NW 17:25:48 76° NE 17:35:30 10° SE visible
28 Nov - 19:23:35 10° W 19:30:23 22° SW 19:37:25 10° S daylight
29 Nov - 04:09:57 10° SSE 04:15:25 16° SE 04:20:45 10° E daylight
29 Nov - 06:10:17 10° SW 06:20:10 85° SE 06:29:38 10° NE daylight
29 Nov - 08:18:36 10° W 08:25:09 20° NW 08:31:36 10° N visible
29 Nov - 14:51:28 10° NNE 14:55:11 13° NE 14:58:56 10° ENE visible
29 Nov - 16:51:23 10° NNW 17:00:39 68° NE 17:10:13 10° SE visible
29 Nov - 18:57:54 10° WNW 19:05:11 25° SW 19:12:43 10° S daylight
30 Nov - 03:45:44 10° SSE 03:50:10 14° SE 03:54:31 10° ESE daylight
30 Nov - 05:45:07 10° SW 05:55:00 77° SE 06:04:27 10° NE daylight
30 Nov - 07:52:45 10° W 07:59:53 23° NW 08:06:52 10° N visible
30 Nov - 14:27:40 10° NNE 14:29:50 11° NE 14:32:01 10° NE visible
30 Nov - 16:26:20 10° NNW 16:35:28 61° NE 16:44:55 10° SE visible
30 Nov - 18:32:19 10° WNW 18:39:59 28° SW 18:47:56 10° S daylight
01 Dec - 03:21:58 10° SSE 03:24:54 11° SE 03:27:47 10° ESE daylight
01 Dec - 05:19:58 10° SSW 05:29:49 69° SE 05:39:15 10° NE daylight
01 Dec - 07:27:00 10° W 07:34:38 26° NW 07:42:05 10° N visible
01 Dec - 16:01:19 10° NNW 16:10:18 54° NE 16:19:34 10° SE visible
01 Dec - 18:06:47 10° WNW 18:14:48 32° SW 18:23:07 10° S visible
02 Dec - 04:54:52 10° SSW 05:04:39 62° SE 05:14:01 10° NE daylight
02 Dec - 07:01:19 10° WSW 07:09:23 29° NW 07:17:14 10° NNE visible
02 Dec - 15:36:19 10° NNW 15:45:08 48° NE 15:54:11 10° ESE visible
02 Dec - 17:41:20 10° WNW 17:49:37 36° SW 17:58:13 10° SSE visible
03 Dec - 04:29:48 10° SSW 04:39:28 56° SE 04:48:45 10° NE daylight
03 Dec - 06:35:42 10° WSW 06:44:09 33° NW 06:52:22 10° NNE visible
03 Dec - 15:11:20 10° NNW 15:19:56 43° NE 15:28:45 10° ESE visible
03 Dec - 17:15:55 10° WNW 17:24:27 41° SW 17:33:17 10° SSE visible
04 Dec - 04:04:45 10° SSW 04:14:18 50° SE 04:23:26 10° ENE daylight
04 Dec - 06:10:09 10° WSW 06:18:56 37° NW 06:27:27 10° NNE daylight
04 Dec - 14:46:23 10° NNW 14:54:45 38° NE 15:03:18 10° ESE visible
04 Dec - 16:50:34 10° WNW 16:59:16 46° SW 17:08:19 10° SSE visible
